User: anonymous   Login
Location: Bonac
(42.8765°N, 0.9753°E)
Time: 23:38:42
(UTC+00:00)
Language:

Resurs 01 Rocket - Orbit

View from above orbital plane
View from above orbital plane
View from above satellite
View from above satellite

Ground track
Ground track

The orbit is defined by the following mean orbital elements,

1 23343U          26064.67778605 +.00000000 +00000-0 +99908-4 0 00001
2 23343  97.7114  95.6579 0005501 225.8356 249.4636 14.79402865    09
Epoch (UTC): 05 March 2026 16:16:00
Eccentricity: 0.0005501
inclination: 97.7114°
perigee height: 627 km
apogee height: 635 km
right ascension of ascending node: 95.6579°
argument of perigee: 225.8356°
revolutions per day: 14.79402865
mean anomaly at epoch: 249.4636°

The dashed part of the orbit path shows where the satellite is in the earth's shadow,  

DLR